Back to catalog

ATLAS 28E DEB

AlivePO
NORAD 20564·DEBRIS·🇺🇸 United States

Launched Apr 11, 1990 from Vandenberg Space Force Base

Loading…

Next Passes (next 24 hours)

TLE

FreshSource: Space-Track

Epoch: Sep 14, 2026, 07:27 UTC

1 20564U 90031E   26257.31052407  .00001167  00000-0  12069-3 0  9990
2 20564  89.8454 262.2007 0049318 297.6227  61.9998 14.88634100385335

Track ATLAS 28E DEB in real time with AllMySat

Download on the App Store